User: anonymous   Login
Location: Unspecified
(0.0000°N, 0.0000°E)
Time: 06:52:07
(UTC+00:00)
Language:

STARLINK-35118 - Orbit

View from above orbital plane
View from above orbital plane
View from above satellite
View from above satellite

Ground track
Ground track

The orbit is defined by the following mean orbital elements,

1 66858U          26145.64459704 +.00000000 +00000-0 +55984-3 0 00007
2 66858  42.9999 268.9715 0000494 338.3213  21.7618 15.27586283    07
Epoch (UTC): 25 May 2026 15:28:13
Eccentricity: 0.0000494
inclination: 42.9999°
perigee height: 483 km
apogee height: 483 km
right ascension of ascending node: 268.9715°
argument of perigee: 338.3213°
revolutions per day: 15.27586283
mean anomaly at epoch: 21.7618°

The dashed part of the orbit path shows where the satellite is in the earth's shadow,  

DLR